CZ-2D DEB, 44606

Orbit data source: Space-Track

CZ-2D DEB, 44606 is space debris in SSO originally from a launch on Fri, 11 Nov 2016 UTC launched from the Jiuquan Satellite Launch Center, China (JSC). Debris objects in space refer to the collection of defunct objects orbiting the Earth. Examples of debris include non-operational satellites, rocket bodies, and fragments generated from explosions, collisions, or faulty payload assembly.

Loading next visibility...
Identifier
44606, 2016-068F
Orbit
SSO
Country
Flag of CNCN / PRC
Related business
Manufacturer
Unknown
Mission
Spacecraft
Bus & Motor
Unknown
Mass
Unknown
Launch date (UTC)
2016-11-11 (9 years ago)
Launch vehicle
Unknown
Launch site
Jiuquan Satellite Launch Center, China (JSC)
Object type
Payload
Rocket body
Debris
Shape & HBR
Unknown
Radar Cross Section
Small (<0.1 m²)

Expand to show TLE details & history
Last TLE update: 2 days ago

TLE from 2 days ago
0 CZ-2D DEB
1 44606U 16068F   25257.09625853  .00000389  00000-0  27148-3 0  9995
2 44606  98.4427 353.2286 0223480 252.8267 104.8319 13.92556753448004
Epoch: 2025-09-14T02:18Z
TLE epoch observation values (Epoch: 2025-09-14T02:18:36.736Z)
Latitude
-0.00009°
Longitude
-34.74463°
Altitude
967.704 km
Speed
7.345 km/s
True Right ascension
23h 32m 54s
True Declination
0° 00' 00"
Sunlit
Object was in full shadow at epoch
Visualization orbit readout
Latitude
Unknown
Longitude
Unknown
Altitude
Unknown
Speed
Unknown
Apparent Right ascension
Unknown
Apparent Declination
Unknown
Sunlit
N/A
Visualization observer readout
Local Sidereal Time
17:23:43
Azimuth
Unknown
Elevation
Unknown
Doppler factor
Unknown
Orbital elements
Apogee altitude
1,079.894 km
Perigee altitude
753.837 km
Semi-major axis
7,295.002 km
Eccentricity
0.02235
Inclination
98.4427°
RAAN
353.2286°
Arg. of periapsis
252.8267°
True anomaly
107.28913°
Mean anomaly
104.8319°
Eccentric anomaly
106.06236°
Mean motion
3.48341 °/min
Orbital period
103.35 mins
BSTAR
0.00027148
Loading maneuver chart data...
Computing Atmospheric mass density...
Loading historical data...
Loading historical data...
Loading historical data...
Loading historical data...
Loading historical data...
Loading historical data...
Loading historical data...

Documentation

Showing up to 5 results
|